Total_Precipitation_Accumulation
1.77 1.82 2.14 1.95 1.85 2.06 2.28 2.31 2.52 2.64 2.45 2.37 2.35 2.30 2.37 2.74 2.84 2.73 2.67 2.85 3.25 3.78 4.16 4.32 4.37 4.28 4.25 4.07 3.43 2.91 2.56 2.52 2.52 2.50 2.40 2.32 2.38 2.57 2.65 2.79 2.82 2.11 2.01
1.55 1.71 1.94 1.90 1.80 2.03 2.24 2.34 2.44 2.53 2.46 2.36 2.29 2.31 2.48 2.78 2.76 2.67 2.63 2.83 3.10 3.55 3.79 3.71 3.68 3.54 3.38 3.18 2.86 2.64 2.60 2.69 2.83 2.86 2.94 2.74 2.79 2.87 2.74 2.76 2.88 2.11 2.07
1.56 1.59 1.65 1.78 1.66 1.82 1.99 2.03 2.13 2.38 2.56 2.54 2.28 2.26 2.48 2.73 2.88 2.97 2.94 2.97 3.18 3.55 3.71 3.57 3.35 3.18 3.00 2.86 2.61 2.52 2.53 2.78 3.10 3.36 3.65 2.77 2.32 2.85 2.77 2.71 2.43 1.97 1.95
1.24 1.25 1.37 1.61 1.63 1.64 1.79 1.87 1.96 2.12 2.31 2.37 2.24 2.16 2.39 2.66 2.85 3.01 3.06 3.00 3.15 3.49 3.85 3.73 3.44 3.23 2.98 2.72 2.54 2.52 2.62 2.91 3.17 3.61 3.44 2.47 1.82 2.24 2.49 2.39 2.09 1.79 1.72
1.11 1.17 1.48 1.60 1.57 1.57 1.62 1.69 1.83 1.91 2.00 2.10 2.14 2.23 2.48 2.72 2.91 2.99 2.92 2.93 3.01 3.29 3.63 3.72 3.29 2.87 2.63 2.53 2.59 2.69 2.81 3.09 3.35 3.28 2.57 2.58 2.47 2.38 2.24 2.13 1.99 1.74 1.59
1.18 1.22 1.42 1.58 1.47 1.48 1.52 1.56 1.72 1.81 1.91 2.07 2.17 2.24 2.59 2.82 2.92 2.91 2.70 2.67 2.84 3.00 3.23 3.29 2.92 2.49 2.38 2.49 2.66 2.80 3.01 3.25 3.19 2.46 2.17 2.25 2.12 2.24 2.20 2.12 1.93 1.74 1.59
1.08 1.24 1.38 1.46 1.31 1.31 1.32 1.41 1.63 1.75 1.89 2.09 2.15 2.29 2.57 2.86 2.96 2.95 2.77 2.85 2.85 2.94 3.08 2.91 2.68 2.51 2.63 2.66 2.73 2.80 3.08 3.25 2.62 2.13 2.26 2.45 2.14 2.12 2.35 2.33 2.07 1.79 1.50
0.97 1.15 1.37 1.40 1.24 1.20 1.27 1.39 1.54 1.72 1.87 2.04 2.09 2.24 2.55 2.87 2.90 2.70 2.66 2.81 2.72 2.83 2.91 2.73 2.50 2.40 2.55 2.66 2.66 2.78 2.95 2.83 2.13 1.84 1.96 2.11 1.86 2.07 2.47 2.46 2.28 2.03 1.67
0.98 1.10 1.27 1.34 1.26 1.22 1.33 1.54 1.66 1.74 1.90 2.06 2.07 2.22 2.64 2.85 2.83 2.67 2.60 2.63 2.65 2.76 2.60 2.43 2.44 2.30 2.34 2.57 2.62 2.79 2.87 2.75 2.11 1.91 1.71 1.82 1.78 2.10 2.49 2.42 2.26 2.16 1.83
1.12 1.22 1.23 1.30 1.20 1.17 1.31 1.67 1.91 1.98 2.09 2.22 2.29 2.43 2.84 2.94 2.89 2.73 2.47 2.51 2.54 2.53 2.46 2.43 2.43 2.35 2.39 2.63 2.83 2.99 2.93 2.48 1.95 1.81 1.78 1.67 1.85 2.29 2.62 2.49 2.38 2.30 2.06
1.35 1.47 1.40 1.42 1.24 1.28 1.35 1.65 1.99 2.12 2.27 2.49 2.66 2.93 3.25 3.37 3.09 3.05 2.64 2.76 2.70 2.65 2.73 2.75 2.73 2.69 2.62 2.82 3.12 3.13 2.77 2.36 2.32 2.00 1.83 1.77 2.09 2.54 2.78 2.81 2.69 2.57 2.39
1.59 1.43 1.46 1.53 1.42 1.52 1.51 1.80 2.36 2.40 2.59 2.86 2.98 3.01 3.31 3.46 3.48 3.00 3.17 3.47 3.48 3.49 3.56 3.60 3.59 3.34 2.86 2.70 3.15 3.46 2.82 2.61 2.51 2.15 1.91 2.03 2.34 2.73 2.89 2.97 2.70 2.61 2.51
1.60 1.46 1.58 1.71 1.82 1.88 2.15 1.96 2.15 2.56 2.89 3.03 3.18 3.35 3.52 3.30 3.22 3.13 3.43 3.91 4.03 4.00 3.98 4.00 3.98 3.42 3.16 3.22 3.38 3.38 3.01 2.88 2.65 2.29 2.40 2.56 2.75 3.15 3.26 3.04 2.81 2.66 2.48
2.08 2.07 2.05 2.23 2.48 2.49 2.26 2.22 2.09 2.21 2.49 2.90 3.21 3.17 3.36 3.71 3.70 3.43 3.51 3.69 3.86 4.01 4.30 3.97 3.87 3.75 3.63 3.38 3.24 3.30 3.11 2.98 2.85 2.81 3.03 3.09 3.07 3.43 3.64 3.30 3.05 2.87 2.68
2.86 3.02 2.98 2.98 2.93 2.98 2.98 2.83 2.40 2.52 2.51 2.63 3.10 3.20 3.24 3.67 3.91 3.78 3.69 3.88 3.54 3.60 4.02 4.10 3.74 3.77 3.86 3.63 3.29 3.20 3.23 3.10 3.09 2.98 3.12 3.31 3.12 3.21 3.56 3.51 3.38 3.15 2.98
3.62 4.12 3.92 3.77 3.52 3.42 3.47 3.43 3.36 3.01 2.90 2.74 3.06 3.21 3.33 3.67 3.90 3.90 3.87 3.94 3.50 3.34 3.56 3.72 3.62 3.79 3.76 3.66 3.26 3.05 3.04 3.22 3.22 3.03 3.10 3.40 3.30 2.98 3.13 3.38 3.59 3.59 3.39
4.26 4.87 4.67 4.55 4.53 4.33 4.23 3.91 3.51 3.24 3.05 3.24 3.43 3.59 3.64 3.70 4.00 4.12 4.05 3.84 3.65 3.62 3.66 3.62 3.64 3.94 3.69 3.53 3.33 3.23 3.19 3.22 3.07 3.03 3.09 3.33 2.99 2.81 2.80 2.91 3.26 3.58 3.82
4.43 4.90 5.29 4.94 5.34 5.30 5.09 4.69 4.19 3.89 3.87 3.81 3.73 3.88 3.68 3.58 3.70 4.07 3.85 3.55 3.71 3.83 3.91 3.85 3.78 3.94 3.96 4.01 3.87 3.64 3.37 3.29 2.71 2.65 2.77 2.86 2.97 2.55 2.69 2.91 3.01 3.16 3.72
4.68 5.25 5.77 5.98 6.06 5.67 5.37 5.10 4.91 4.57 4.27 3.84 3.44 3.36 3.25 3.02 2.99 3.19 3.13 3.13 3.17 3.34 3.30 3.06 3.43 3.65 3.88 4.04 3.77 3.57 3.17 3.04 2.79 2.62 2.68 2.47 2.64 2.67 2.71 2.76 2.96 3.00 3.48
4.78 5.68 6.17 6.35 5.96 5.53 5.20 4.83 4.76 4.41 4.03 3.67 3.25 2.97 2.79 2.76 2.61 2.79 2.62 2.66 2.85 3.09 3.15 3.20 3.42 3.35 3.31 3.49 3.12 3.10 3.04 2.80 2.76 2.70 2.49 2.45 2.49 2.47 2.59 2.77 2.99 2.63 3.12
4.84 5.84 6.31 6.20 5.62 5.08 4.64 4.25 4.01 3.71 3.45 3.32 3.01 2.64 2.59 2.58 2.60 2.88 2.59 2.86 2.87 2.97 2.98 2.90 3.00 2.97 2.73 2.89 3.37 3.30 2.92 2.69 2.70 2.57 2.44 2.55 2.37 2.39 2.60 2.85 3.09 3.12 2.78
4.16 4.95 5.36 5.13 4.56 3.89 3.59 3.51 3.47 3.43 3.07 2.84 2.75 2.71 2.42 2.45 2.52 2.58 2.72 2.55 2.58 2.78 2.70 2.65 2.94 2.91 2.57 2.67 3.16 3.39 3.24 3.27 3.02 2.34 2.30 2.44 2.41 2.45 2.53 2.62 2.96 3.20 3.03
3.62 3.61 3.79 3.76 3.36 3.06 2.95 2.94 2.99 3.17 2.94 2.64 2.55 2.51 2.28 2.20 2.18 2.32 2.39 2.50 2.61 2.50 2.59 2.65 2.70 2.81 2.75 2.59 2.65 3.20 3.18 3.06 2.95 2.66 2.30 2.20 2.38 2.61 2.58 2.63 2.66 2.77 2.85
2.72 2.52 2.55 2.70 2.62 2.62 2.55 2.55 2.47 2.36 2.36 2.26 2.26 2.22 2.19 2.07 2.02 1.94 2.05 2.29 2.45 2.40 2.65 2.39 2.46 2.71 2.81 2.57 2.56 2.64 2.65 2.74 2.91 2.76 2.39 2.11 2.13 2.25 2.40 2.35 2.51 2.67 2.76
1.82 1.84 2.04 2.37 2.49 2.42 2.36 2.49 2.52 2.24 2.11 2.04 2.08 2.20 2.15 2.04 1.93 1.81 1.88 2.11 2.26 2.33 2.45 2.46 2.73 2.65 2.55 2.49 2.46 2.55 2.65 2.67 2.54 2.59 2.55 2.26 2.10 1.95 2.05 2.23 2.43 2.63 2.64
1.29 1.39 1.63 2.10 2.33 2.23 2.19 2.23 2.21 2.17 2.15 2.07 2.00 2.06 2.02 1.95 1.96 1.97 1.91 2.03 2.05 2.09 2.19 2.32 2.55 2.56 2.51 2.52 2.38 2.29 2.51 2.61 2.58 2.65 2.48 2.23 2.06 1.83 1.82 1.95 2.28 2.59 2.69